[[{"header":{"parameterUnit":"m.s-1","parameterCategory":1,"la1":30.2991,"la2":30.254,"lo1":-89.0895,"lo2":-89.0444,"dy":0.0017,"dx":0.0017,"nx":28,"ny":28,"refTime":"2023-08-22T21:00:00:Z","depth":0,"parameterNumber":2,"parameterNumberName":"U-component_of_WINDS"},"data":[0,0,0,0,0,0,0,0,0,0,0,0,0,0,0,0,0,0,0,0,0,0,0,0,0,0,0,0,0,0,0,0,0,0,0,0,0,0,0,0,0,0,0,0,0,0,0,0,0,0,0,0,0,0,0,0,0,0,-0.4733,-0.4733,0,-0.4671,-0.467,-0.467,-0.4683,-0.4684,-0.4686,-0.4687,-0.4622,-0.4619,-0.4616,0,0,0,0,0,0,0,0,0,0,0,0,0,-0.4864,-0.4861,-0.4733,-0.4733,-0.4732,-0.4671,-0.467,-0.4669,-0.4683,-0.4684,-0.4686,-0.4687,-0.4622,-0.4619,-0.4616,0,0,0,0,0,0,0,0,0,0,0,0,0,-0.4805,-0.4861,-0.4734,-0.4731,-0.4731,-0.4671,-0.467,-0.4669,-0.4683,-0.4684,-0.4686,-0.4688,-0.4624,-0.4619,-0.4615,-0.4554,0,0,-0.4602,-0.46,0,0,0,0,0,0,0,0,-0.4808,-0.48,-0.4732,-0.4731,-0.473,-0.4687,-0.4692,-0.463,-0.4682,-0.4701,-0.4687,-0.4689,-0.4642,-0.4636,-0.4621,-0.4551,-0.4548,-0.4602,-0.4599,-0.4598,-0.4596,0,0,0,0,0,0,0,-0.4812,-0.4803,-0.4709,-0.4731,-0.473,-0.4733,-0.4727,-0.4681,-0.4662,-0.4699,-0.47,-0.4693,-0.4641,-0.4625,-0.4619,-0.4547,-0.4602,-0.4598,-0.4596,-0.4594,-0.4425,-0.4424,0,0,0,0,0,0,-0.4817,-0.4806,-0.4711,-0.4707,-0.4774,-0.473,-0.4722,-0.4699,-0.4663,-0.4659,-0.4691,-0.4694,-0.4631,-0.4624,-0.4617,-0.4543,-0.4598,-0.4594,-0.4591,-0.4427,-0.4425,-0.4423,0,0,0,0,0,0,-0.482,-0.4809,-0.4713,-0.4757,-0.4745,-0.4726,-0.4699,-0.4697,-0.468,-0.4657,-0.4653,-0.4677,-0.4632,-0.4623,-0.457,-0.4541,-0.4592,-0.4588,-0.443,-0.4427,-0.4424,-0.4395,0,0,0,0,0,0,-0.4824,-0.481,-0.4786,-0.4756,-0.4742,-0.4667,-0.4697,-0.4694,-0.4673,-0.4675,-0.4643,-0.4639,-0.4633,-0.4576,-0.4566,-0.4536,-0.4585,-0.4432,-0.4428,-0.4425,-0.4399,-0.4392,-0.4386,0,0,0,0,0,-0.4828,-0.478,-0.4785,-0.4773,-0.4713,-0.4665,-0.4658,-0.4652,-0.467,-0.4647,-0.4632,-0.464,-0.4546,-0.4571,-0.4559,-0.4528,-0.4434,-0.4429,-0.4425,-0.4401,-0.4393,-0.4386,0,0,0,0,0,0,-0.4806,-0.4776,-0.4781,-0.4721,-0.4696,-0.4668,-0.4637,-0.4643,-0.4611,-0.4615,-0.4608,-0.4601,-0.4547,-0.4532,-0.456,-0.4467,-0.4493,-0.4486,-0.4479,-0.447,-0.4464,-0.4469,-0.4581,0,0,0,0,0,-0.4795,-0.4759,-0.4734,-0.4684,-0.4671,-0.4657,-0.4636,-0.4634,-0.4607,-0.4596,-0.4577,-0.4551,-0.4516,-0.4492,-0.4458,-0.4397,-0.439,-0.437,-0.4363,-0.4358,-0.4352,-0.4319,-0.431,-0.4409,-0.4409,-0.4409,0,0,-0.477,-0.4749,-0.4727,-0.4679,-0.4659,-0.4623,-0.4647,-0.4607,-0.458,-0.459,-0.4539,-0.4524,-0.4495,-0.4437,-0.4411,-0.4423,-0.4324,-0.4353,-0.4349,-0.4345,-0.4314,-0.4305,-0.4296,-0.4406,-0.4406,-0.4407,0,0,-0.4706,-0.4686,-0.4643,-0.4623,-0.4593,-0.4583,-0.4573,-0.4544,-0.4535,-0.4484,-0.4491,-0.4459,-0.4398,-0.4376,-0.4358,-0.4287,-0.4294,-0.4276,-0.4242,-0.4211,-0.4203,-0.4196,-0.4171,-0.4162,-0.4271,-0.427,-0.427,0,-0.4679,-0.4624,-0.462,-0.4579,-0.4558,-0.4567,-0.4523,-0.4503,-0.4463,-0.4449,-0.4463,-0.4388,-0.4368,-0.4306,-0.4289,-0.4274,-0.4262,-0.428,-0.4204,-0.4197,-0.4191,-0.4167,-0.4158,-0.4269,-0.4269,-0.4269,-0.4269,0,-0.4592,-0.4554,-0.4523,-0.4485,-0.446,-0.4418,-0.4408,-0.4384,-0.4384,-0.4374,-0.4322,-0.4299,-0.4261,-0.4246,-0.4246,-0.4185,-0.4193,-0.4206,-0.4231,-0.418,-0.4157,-0.4148,-0.4266,-0.4267,-0.4267,-0.4268,0,0,-0.4511,-0.4473,-0.4461,-0.4445,-0.4412,-0.4383,-0.4342,-0.4305,-0.4285,-0.4257,-0.4223,-0.4172,-0.4184,-0.4163,-0.416,-0.4132,-0.4079,-0.4148,-0.4148,-0.4136,-0.401,-0.4001,-0.3991,-0.4083,-0.4081,-0.408,-0.4013,0,-0.4445,-0.4372,-0.4368,-0.4302,-0.4267,-0.4275,-0.4239,-0.4216,-0.4205,-0.4174,-0.4162,-0.4126,-0.4145,-0.4132,-0.4105,-0.4091,-0.4053,-0.4096,-0.4051,-0.4049,-0.4058,-0.3979,-0.3968,-0.3906,-0.4004,-0.4003,-0.4002,0,-0.4357,-0.4327,-0.4258,-0.4232,-0.4218,-0.4185,-0.4152,-0.4122,-0.4096,-0.4091,-0.4068,-0.4069,-0.4027,-0.4055,-0.3997,-0.4026,-0.4008,-0.3998,-0.3996,-0.3991,-0.4022,-0.3972,-0.3886,-0.3877,-0.3988,-0.3989,-0.399,0,-0.4305,-0.4248,-0.42,-0.4185,-0.4154,-0.4131,-0.4117,-0.4092,-0.4071,-0.4042,-0.4029,-0.3995,-0.3976,-0.3951,-0.3943,-0.3964,-0.3886,-0.3913,-0.388,-0.388,-0.3863,-0.3864,-0.3773,-0.3851,-0.3851,-0.3852,-0.3852,0,-0.4231,-0.4188,-0.4176,-0.4146,-0.4099,-0.4095,-0.4048,-0.4036,-0.4014,-0.3982,-0.3987,-0.3957,-0.395,-0.3918,-0.3912,-0.3866,-0.3857,-0.3852,-0.3851,-0.3851,-0.3852,-0.3839,-0.3843,-0.3849,-0.385,-0.385,-0.3851,0,-0.4164,-0.4155,-0.4103,-0.4077,-0.407,-0.4037,-0.4015,-0.3987,-0.3977,-0.3937,-0.3927,-0.3912,-0.3875,-0.3866,-0.3822,-0.3818,-0.3764,-0.3767,-0.3772,-0.3772,-0.3741,-0.3744,-0.3637,-0.3624,-0.3711,-0.371,-0.371,0,-0.4118,-0.4085,-0.4057,-0.4036,-0.4021,-0.3987,-0.3966,-0.3961,-0.3938,-0.3907,-0.3882,-0.3847,-0.3818,-0.3759,-0.3744,-0.3711,-0.3713,-0.3678,-0.3708,-0.371,-0.3713,-0.3715,-0.3712,-0.3673,-0.3672,-0.3671,-0.367,0,-0.4036,-0.4033,-0.4002,-0.3969,-0.3944,-0.3918,-0.3894,-0.3876,-0.3868,-0.3842,-0.3805,-0.3783,-0.3739,-0.3704,-0.367,-0.3656,-0.3662,-0.3661,-0.3652,-0.3652,-0.3657,-0.3654,-0.3757,-0.3663,-0.3664,-0.3665,-0.3665,-0.3665,-0.3978,-0.3949,-0.3925,-0.3891,-0.3872,-0.3849,-0.3822,-0.3809,-0.3779,-0.3742,-0.3741,-0.3701,-0.3677,-0.3633,-0.3617,-0.3586,-0.3597,-0.3583,-0.358,-0.3576,-0.3574,-0.3662,-0.358,-0.358,-0.358,-0.358,-0.3581,0,-0.3896,-0.3881,-0.385,-0.3816,-0.3789,-0.3797,-0.3771,-0.3748,-0.3713,-0.369,-0.3662,-0.362,-0.3586,-0.3569,-0.3535,-0.3514,-0.3516,-0.3505,-0.3506,-0.3503,-0.3566,-0.3577,-0.3504,-0.3504,-0.3504,-0.3504,-0.3504,-0.3504,-0.385,-0.3803,-0.3798,-0.3742,-0.3728,-0.3689,-0.3673,-0.3652,-0.3634,-0.3587,-0.3559,-0.3549,-0.3528,-0.3494,-0.3463,-0.3459,-0.3447,-0.3435,-0.3432,-0.3491,-0.3499,-0.3506,-0.3517,-0.3432,-0.3432,-0.3372,-0.3371,-0.3371]},{"header":{"parameterUnit":"m.s-1","parameterCategory":1,"la1":30.2991,"la2":30.254,"lo1":-89.0895,"lo2":-89.0444,"dy":0.0017,"dx":0.0017,"nx":28,"ny":28,"refTime":"2023-08-22T21:00:00:Z","depth":0,"parameterNumber":3,"parameterNumberName":"V-component_of_WINDS"},"data":[0,0,0,0,0,0,0,0,0,0,0,0,0,0,0,0,0,0,0,0,0,0,0,0,0,0,0,0,0,0,0,0,0,0,0,0,0,0,0,0,0,0,0,0,0,0,0,0,0,0,0,0,0,0,0,0,0,0,1.5541,1.5541,0,1.5541,1.5541,1.5541,1.5514,1.5514,1.5513,1.5512,1.5513,1.5513,1.5514,0,0,0,0,0,0,0,0,0,0,0,0,0,1.5516,1.5517,1.5541,1.5541,1.5541,1.5541,1.5541,1.5541,1.5515,1.5514,1.5513,1.5512,1.5513,1.5513,1.5514,0,0,0,0,0,0,0,0,0,0,0,0,0,1.5523,1.5517,1.5541,1.5527,1.5526,1.5541,1.5541,1.5541,1.5515,1.5514,1.5513,1.5512,1.5512,1.5513,1.5514,1.5542,0,0,1.5517,1.5518,0,0,0,0,0,0,0,0,1.5522,1.5524,1.5529,1.5528,1.5527,1.5527,1.5533,1.5541,1.5515,1.5519,1.5512,1.5511,1.5518,1.5519,1.5521,1.5542,1.5542,1.5518,1.5518,1.5519,1.5519,0,0,0,0,0,0,0,1.5522,1.5523,1.5541,1.553,1.5528,1.5521,1.5521,1.5534,1.5525,1.5519,1.5517,1.5517,1.5517,1.552,1.5521,1.5542,1.5517,1.5518,1.5519,1.5519,1.5585,1.5586,0,0,0,0,0,0,1.5523,1.5523,1.5541,1.5541,1.5522,1.5523,1.5522,1.5528,1.5524,1.5523,1.5518,1.5516,1.5519,1.552,1.5521,1.5552,1.5519,1.5519,1.552,1.5583,1.5585,1.5586,0,0,0,0,0,0,1.5523,1.5525,1.5541,1.5532,1.5533,1.5524,1.5531,1.5528,1.5531,1.5524,1.5522,1.5523,1.5518,1.5519,1.5537,1.5552,1.552,1.5521,1.5582,1.5584,1.5585,1.5616,0,0,0,0,0,0,1.5522,1.5525,1.5536,1.5532,1.5534,1.5557,1.5532,1.5529,1.5533,1.553,1.5528,1.5526,1.5518,1.5535,1.5538,1.5553,1.5522,1.5581,1.5583,1.5585,1.5614,1.5619,1.5623,0,0,0,0,0,1.5522,1.5544,1.5536,1.5539,1.5547,1.5558,1.5559,1.5548,1.5534,1.5545,1.554,1.5527,1.555,1.5537,1.554,1.5556,1.558,1.5582,1.5585,1.5612,1.5618,1.5623,0,0,0,0,0,0,1.555,1.5544,1.5535,1.5557,1.5558,1.5553,1.5566,1.5555,1.556,1.5557,1.5543,1.5543,1.5562,1.5561,1.5547,1.5582,1.5562,1.5566,1.5582,1.5588,1.5592,1.5592,1.5522,0,0,0,0,0,1.5559,1.5569,1.5563,1.5583,1.5584,1.5575,1.558,1.5571,1.5572,1.5572,1.5569,1.557,1.5577,1.5582,1.5589,1.5613,1.5612,1.5625,1.563,1.5634,1.5637,1.5649,1.5655,1.5594,1.5594,1.5594,0,0,1.5578,1.5575,1.5582,1.5589,1.5589,1.5599,1.5576,1.5587,1.5595,1.5574,1.559,1.5587,1.5587,1.5608,1.5617,1.5607,1.5653,1.5637,1.564,1.5641,1.5652,1.5658,1.5663,1.5596,1.5596,1.5595,0,0,1.5617,1.5616,1.5633,1.5633,1.5633,1.5627,1.5631,1.5628,1.5625,1.5641,1.5625,1.5634,1.5647,1.5648,1.565,1.5689,1.5676,1.5691,1.5715,1.5727,1.5732,1.5736,1.575,1.5755,1.5694,1.5694,1.5694,0,1.564,1.5655,1.5643,1.5656,1.5659,1.564,1.5656,1.5657,1.566,1.5662,1.5651,1.5667,1.5666,1.5686,1.5696,1.5698,1.5702,1.5691,1.5732,1.5736,1.574,1.5753,1.5758,1.5696,1.5696,1.5695,1.5695,0,1.5683,1.5693,1.5707,1.5709,1.5714,1.5729,1.5719,1.5725,1.5716,1.5711,1.5727,1.5725,1.573,1.5734,1.5726,1.5754,1.5748,1.5735,1.5715,1.5748,1.576,1.5764,1.5698,1.5698,1.5697,1.5697,0,0,1.5741,1.5736,1.5741,1.5741,1.574,1.5748,1.5761,1.5767,1.5772,1.5774,1.5785,1.5796,1.5784,1.5787,1.5778,1.5789,1.5819,1.5775,1.5774,1.5783,1.5849,1.5859,1.5865,1.5811,1.5812,1.5813,1.5849,0,1.5778,1.5801,1.579,1.5815,1.5824,1.5806,1.5818,1.5818,1.5813,1.5821,1.5815,1.5824,1.5807,1.5809,1.5819,1.5814,1.5833,1.5811,1.5821,1.5822,1.5822,1.5871,1.5882,1.5916,1.5854,1.5855,1.5855,0,1.5825,1.5829,1.5854,1.585,1.5854,1.5864,1.5868,1.5875,1.5875,1.5871,1.5873,1.5862,1.5875,1.5856,1.5873,1.5859,1.5862,1.586,1.5861,1.5862,1.584,1.5873,1.5927,1.5932,1.5862,1.5862,1.5861,0,1.5864,1.5875,1.5892,1.5893,1.5889,1.5897,1.5896,1.5894,1.5898,1.5901,1.5904,1.5909,1.5911,1.5915,1.5906,1.5892,1.5924,1.5904,1.5921,1.5921,1.5929,1.5928,1.5984,1.5931,1.5931,1.5931,1.5931,0,1.5907,1.5923,1.5909,1.5919,1.5936,1.5924,1.5941,1.5938,1.5937,1.5946,1.5931,1.5939,1.5926,1.5934,1.5926,1.5941,1.5943,1.594,1.5938,1.5941,1.5942,1.5943,1.5941,1.5932,1.5932,1.5932,1.5932,0,1.5954,1.5945,1.5962,1.5956,1.5955,1.5968,1.5964,1.5973,1.5967,1.5978,1.598,1.5972,1.5979,1.597,1.5977,1.5972,1.5993,1.5987,1.5993,1.5992,1.6009,1.6008,1.6068,1.6075,1.6018,1.6018,1.6019,0,1.5982,1.5994,1.599,1.5994,1.5994,1.6002,1.6006,1.5994,1.5998,1.5998,1.6007,1.6014,1.6018,1.6032,1.6026,1.6031,1.6025,1.6046,1.6026,1.6029,1.6026,1.6025,1.6026,1.605,1.6051,1.6052,1.6052,0,1.6033,1.6028,1.6034,1.6038,1.6042,1.6045,1.6047,1.6052,1.6039,1.6045,1.6053,1.6056,1.6063,1.607,1.6073,1.6072,1.606,1.6058,1.6062,1.6066,1.6069,1.6068,1.6004,1.6057,1.6056,1.6056,1.6056,1.6056,1.6071,1.608,1.6079,1.6086,1.6085,1.6087,1.6095,1.609,1.6097,1.6101,1.6094,1.6103,1.6102,1.6106,1.6106,1.6113,1.6104,1.611,1.6112,1.6114,1.6116,1.6068,1.6114,1.6114,1.6113,1.6113,1.6113,0,1.6121,1.6119,1.6125,1.6128,1.6133,1.6121,1.6122,1.6127,1.6136,1.6136,1.614,1.6149,1.6155,1.615,1.6155,1.6162,1.6157,1.6164,1.6163,1.6163,1.6124,1.612,1.6168,1.6168,1.6168,1.6168,1.6168,1.6168,1.6147,1.6163,1.6157,1.6172,1.617,1.6179,1.6181,1.6182,1.6182,1.6192,1.6197,1.6194,1.6191,1.6196,1.6201,1.6199,1.6202,1.6211,1.6207,1.6171,1.6166,1.6161,1.6157,1.6212,1.6212,1.6246,1.6246,1.6246]}]]